When you browse on this site, cookies collect data to enhance your experience and personalize the content and advertising you see.
Visit our Privacy Policy to learn more. By continuing to use the site, you agree to this use of cookies and data.
  • In Lithuania
  • List of Countries
  • For 7 days
  • Water Temperature
  • Satellite Maps
  • Weather Map
  • Weather Widgets
  • user-avatar
    Login

    Hourly Weather Kaprun

    Today, 22 July, Monday

    Time Temperature Precipitation Wind Pressure Humidity
    00:00 +8°C° 0 mm 1 mps 603 mmHg 85%
    01:00 +8°C° 0 mm 1 mps 603 mmHg 84%
    02:00 +8°C° 0 mm 1 mps 603 mmHg 83%
    03:00 +8°C° 0 mm 1 mps 603 mmHg 82%
    04:00 +8°C° 0 mm 1 mps 603 mmHg 81%
    05:00 +10°C° 0 mm 1 mps 604 mmHg 78%
    06:00 +11°C° 0 mm 1 mps 605 mmHg 75%
    07:00 +14°C° 0 mm 1 mps 606 mmHg 73%
    08:00 +15°C° 0 mm 1 mps 606 mmHg 66%
    09:00 +16°C° 0 mm 1 mps 607 mmHg 60%
    10:00 +19°C° 0 mm 1 mps 607 mmHg 53%
    11:00 +19°C° 0 mm 2 mps 608 mmHg 49%
    12:00 +19°C° 0 mm 2 mps 608 mmHg 46%
    13:00 +20°C° 0 mm 2 mps 608 mmHg 43%
    14:00 +20°C° 0 mm 2 mps 608 mmHg 46%
    15:00 +19°C° 0 mm 3 mps 607 mmHg 50%
    16:00 +19°C° 0 mm 3 mps 607 mmHg 53%
    17:00 +18°C° 0 mm 2 mps 606 mmHg 63%
    18:00 +16°C° 0 mm 2 mps 606 mmHg 73%
    19:00 +15°C° 0 mm 1 mps 605 mmHg 83%
    20:00 +13°C° 0 mm 1 mps 605 mmHg 87%
    21:00 +12°C° 0 mm 1 mps 604 mmHg 90%
    22:00 +10°C° 0 mm 1 mps 604 mmHg 94%
    23:00 +10°C° 0 mm 1 mps 604 mmHg 94%

    Tomorrow, 23 July, Tuesday

    Time Temperature Precipitation Wind Pressure Humidity
    00:00 +10°C° 0 mm 1 mps 604 mmHg 93%
    01:00 +10°C° 0 mm 1 mps 604 mmHg 92%
    02:00 +10°C° 0 mm 1 mps 603 mmHg 90%
    03:00 +9°C° 0 mm 1 mps 603 mmHg 88%
    04:00 +9°C° 0 mm 1 mps 603 mmHg 86%
    05:00 +11°C° 0 mm 1 mps 604 mmHg 79%
    06:00 +13°C° 0 mm 1 mps 604 mmHg 72%
    07:00 +14°C° 0 mm 0 mps 605 mmHg 65%
    08:00 +16°C° 0 mm 0 mps 606 mmHg 57%
    09:00 +19°C° 0 mm 1 mps 606 mmHg 49%
    10:00 +21°C° 0 mm 1 mps 607 mmHg 41%
    11:00 +22°C° 0 mm 1 mps 607 mmHg 40%
    12:00 +23°C° 0 mm 1 mps 607 mmHg 39%
    13:00 +24°C° 0 mm 1 mps 607 mmHg 38%
    14:00 +23°C° 0 mm 2 mps 607 mmHg 40%
    15:00 +23°C° 0 mm 2 mps 607 mmHg 41%
    16:00 +23°C° 0 mm 2 mps 607 mmHg 43%
    17:00 +20°C° 0 mm 2 mps 606 mmHg 55%
    18:00 +20°C° 0 mm 1 mps 605 mmHg 66%
    19:00 +18°C° 0 mm 1 mps 604 mmHg 78%
    20:00 +15°C° 0 mm 1 mps 604 mmHg 81%
    21:00 +13°C° 0 mm 1 mps 603 mmHg 85%
    22:00 +12°C° 0 mm 1 mps 602 mmHg 88%
    23:00 +11°C° 0 mm 1 mps 602 mmHg 87%

    Day after tomorrow, 24 July, Wednesday

    Time Temperature Precipitation Wind Pressure Humidity
    00:00 +11°C° 0 mm 1 mps 602 mmHg 86%
    01:00 +11°C° 0 mm 1 mps 602 mmHg 85%
    02:00 +11°C° 0 mm 1 mps 601 mmHg 84%
    03:00 +11°C° 0 mm 1 mps 601 mmHg 83%
    04:00 +10°C° 0 mm 1 mps 601 mmHg 82%
    05:00 +12°C° 0 mm 0 mps 602 mmHg 75%
    06:00 +14°C° 0 mm 0 mps 603 mmHg 69%
    07:00 +16°C° 0 mm 0 mps 604 mmHg 62%
    08:00 +20°C° 0 mm 1 mps 605 mmHg 55%
    09:00 +21°C° 0 mm 1 mps 605 mmHg 48%
    10:00 +23°C° 0 mm 1 mps 606 mmHg 41%
    11:00 +24°C° 0 mm 2 mps 606 mmHg 39%
    12:00 +24°C° 0 mm 2 mps 606 mmHg 37%
    13:00 +25°C° 0 mm 2 mps 606 mmHg 34%
    14:00 +25°C° 0 mm 2 mps 606 mmHg 37%
    15:00 +25°C° 0 mm 2 mps 606 mmHg 39%
    16:00 +24°C° 0 mm 2 mps 605 mmHg 41%
    17:00 +21°C° 0.3 mm 2 mps 605 mmHg 55%
    18:00 +20°C° 0.3 mm 1 mps 604 mmHg 69%
    19:00 +18°C° 0.3 mm 1 mps 603 mmHg 82%
    20:00 +16°C° 0.2 mm 1 mps 603 mmHg 84%
    21:00 +15°C° 0.2 mm 1 mps 603 mmHg 86%
    22:00 +14°C° 0.2 mm 1 mps 602 mmHg 88%
    23:00 +13°C° 0 mm 1 mps 602 mmHg 88%

    25 July, Thursday

    Time Temperature Precipitation Wind Pressure Humidity
    00:00 +13°C° 0 mm 1 mps 602 mmHg 88%
    01:00 +12°C° 0 mm 1 mps 602 mmHg 87%
    02:00 +12°C° 0 mm 1 mps 601 mmHg 87%
    03:00 +12°C° 0 mm 1 mps 601 mmHg 86%
    04:00 +12°C° 0 mm 1 mps 601 mmHg 85%
    05:00 +13°C° 0 mm 0 mps 602 mmHg 81%
    06:00 +14°C° 0 mm 0 mps 603 mmHg 76%
    07:00 +16°C° 0 mm 0 mps 604 mmHg 72%
    08:00 +18°C° 0 mm 0 mps 605 mmHg 65%
    09:00 +21°C° 0 mm 1 mps 605 mmHg 59%
    10:00 +23°C° 0 mm 1 mps 606 mmHg 52%
    11:00 +24°C° 0.5 mm 1 mps 606 mmHg 52%
    12:00 +24°C° 0.5 mm 1 mps 606 mmHg 51%
    13:00 +24°C° 0.5 mm 1 mps 606 mmHg 51%
    14:00 +24°C° 1.3 mm 1 mps 605 mmHg 55%
    15:00 +23°C° 1.3 mm 1 mps 605 mmHg 58%
    16:00 +23°C° 1.3 mm 1 mps 604 mmHg 62%
    17:00 +21°C° 1.3 mm 1 mps 604 mmHg 70%
    18:00 +20°C° 1.3 mm 1 mps 603 mmHg 78%
    19:00 +16°C° 1.3 mm 0 mps 602 mmHg 86%
    20:00 +16°C° 0.2 mm 1 mps 602 mmHg 86%
    21:00 +15°C° 0.2 mm 1 mps 602 mmHg 86%
    22:00 +13°C° 0.2 mm 1 mps 601 mmHg 86%
    23:00 +13°C° 0 mm 1 mps 601 mmHg 85%

    26 July, Friday

    Time Temperature Precipitation Wind Pressure Humidity
    00:00 +13°C° 0 mm 1 mps 601 mmHg 85%
    01:00 +12°C° 0 mm 1 mps 601 mmHg 85%
    02:00 +12°C° 0 mm 1 mps 600 mmHg 84%
    03:00 +12°C° 0 mm 1 mps 600 mmHg 83%
    04:00 +12°C° 0 mm 1 mps 600 mmHg 81%
    05:00 +14°C° 0 mm 1 mps 600 mmHg 78%
    06:00 +15°C° 0 mm 0 mps 601 mmHg 74%
    07:00 +16°C° 0 mm 0 mps 602 mmHg 70%
    08:00 +18°C° 0.1 mm 0 mps 603 mmHg 65%
    09:00 +21°C° 0.1 mm 1 mps 603 mmHg 59%
    10:00 +23°C° 0.1 mm 1 mps 604 mmHg 54%
    11:00 +23°C° 0.4 mm 1 mps 603 mmHg 52%
    12:00 +23°C° 0.4 mm 1 mps 603 mmHg 51%
    13:00 +24°C° 0.4 mm 2 mps 603 mmHg 49%
    14:00 +23°C° 1.2 mm 2 mps 603 mmHg 54%
    15:00 +22°C° 1.2 mm 1 mps 602 mmHg 59%
    16:00 +22°C° 1.2 mm 1 mps 602 mmHg 64%
    17:00 +20°C° 1.3 mm 1 mps 601 mmHg 72%
    18:00 +19°C° 1.3 mm 1 mps 601 mmHg 80%
    19:00 +15°C° 1.3 mm 0 mps 600 mmHg 87%
    20:00 +14°C° 1.2 mm 0 mps 600 mmHg 88%
    21:00 +14°C° 1.2 mm 1 mps 600 mmHg 89%
    22:00 +13°C° 1.2 mm 1 mps 599 mmHg 89%
    23:00 +13°C° 0.1 mm 1 mps 599 mmHg 89%

    27 July, Saturday

    Time Temperature Precipitation Wind Pressure Humidity
    00:00 +13°C° 0.1 mm 1 mps 599 mmHg 88%
    01:00 +11°C° 0.1 mm 0 mps 599 mmHg 88%
    02:00 +11°C° 0.1 mm 0 mps 598 mmHg 88%
    03:00 +11°C° 0.1 mm 1 mps 598 mmHg 89%
    04:00 +11°C° 0.1 mm 1 mps 597 mmHg 90%
    05:00 +11°C° 0.1 mm 0 mps 598 mmHg 87%
    06:00 +13°C° 0.1 mm 0 mps 599 mmHg 83%
    07:00 +14°C° 0.1 mm 0 mps 600 mmHg 80%
    08:00 +15°C° 0.9 mm 0 mps 600 mmHg 79%
    09:00 +18°C° 0.9 mm 1 mps 600 mmHg 79%
    10:00 +19°C° 0.9 mm 1 mps 601 mmHg 78%
    11:00 +19°C° 1.3 mm 1 mps 600 mmHg 76%
    12:00 +19°C° 1.3 mm 1 mps 600 mmHg 74%
    13:00 +19°C° 1.3 mm 1 mps 600 mmHg 72%
    14:00 +19°C° 0.8 mm 1 mps 600 mmHg 72%
    15:00 +19°C° 0.8 mm 1 mps 600 mmHg 73%
    16:00 +19°C° 0.8 mm 1 mps 600 mmHg 73%
    17:00 +18°C° 0.7 mm 1 mps 600 mmHg 78%
    18:00 +16°C° 0.7 mm 1 mps 599 mmHg 83%
    19:00 +14°C° 0.7 mm 0 mps 599 mmHg 87%
    20:00 +13°C° 0 mm 1 mps 599 mmHg 87%
    21:00 +12°C° 0 mm 1 mps 598 mmHg 87%
    22:00 +11°C° 0 mm 1 mps 598 mmHg 87%
    23:00 +11°C° 0 mm 1 mps 598 mmHg 86%
    Show more